Location: Beuerbach
(48.1459°N, 10.9174°E)
Time: 01:49:15
(UTC+00:00)

Meteor 1-24 Rocket - Pass Details

Date: 23 May 2024
Orbit: 788 x 927 km, 81.3° (Epoch: 19 June)

Event Time Altitude Azimuth Distance (km) Brightness Sun altitude
Exits shadow 02:02:47 10° 191° (S) 2,596 5.7 -11.4°
Maximum altitude 02:08:45 87° 281° (W) 934 3.9 -10.8°
Drops below altitude 10° 02:14:47 10° 11° (N) 2,618 7.2 -10.1°
Sets 02:17:15 0° 12° (NNE) 3,551 8.1 -9.8°
